Location: Voyageurs National Park
(48.5020°N, 92.9292°W)
Time: 09:50:24
(UTC-05:00)

Cosmos 1844 Rocket - Pass Details

Date: 19 January 2018
Orbit: 823 x 846 km, 71.0° (Epoch: 24 May)

Event Time Altitude Azimuth Distance (km) Brightness Sun altitude
Exits shadow 06:32:00 15° 256° (WSW) 2,103 4.2 -13.5°
Maximum altitude 06:35:51 31° 312° (NW) 1,418 3.4 -12.9°
Drops below altitude 10° 06:40:47 10° 14° (NNE) 2,434 5.1 -12.1°
Sets 06:43:30 0° 24° (NNE) 3,371 5.9 -11.7°
